This is the latest recevied weather packets stored in our database for station/object IR3AS. If no packets are shown the sender has not sent any weather packets the latest 1 day(s).
| Time | Temp. | Humidity | Pressure | Rain* | Wind** | Luminosity | Snow |
|---|---|---|---|---|---|---|---|
| 1777971651 | 2.22° C | 92% | 853.6 hPa | 0 mm | 0.89 m/s, 292° | - | - |
| 1777971352 | 2.22° C | 92% | 853.7 hPa | 0 mm | 4.47 m/s, 292° | - | - |
| 1777971052 | 2.78° C | 92% | 853.9 hPa | 0 mm | 1.34 m/s, 292° | - | - |
| 1777970752 | 2.78° C | 92% | 855.1 hPa | 0 mm | 1.34 m/s, 292° | - | - |
| 1777970452 | 2.78° C | 92% | 855.6 hPa | 0 mm | 1.79 m/s, 292° | - | - |
| 1777970152 | 2.78° C | 92% | 855.7 hPa | 0 mm | 1.79 m/s, 292° | - | - |
| 1777969852 | 2.78° C | 92% | 856.2 hPa | 0 mm | 1.34 m/s, 292° | - | - |
| 1777969552 | 2.78° C | 91% | 856.1 hPa | 0 mm | 1.79 m/s, 292° | - | - |
| 1777969252 | 2.78° C | 91% | 855.1 hPa | 0 mm | 0.89 m/s, 292° | - | - |
| 1777968952 | 2.78° C | 91% | 853.7 hPa | 0 mm | 3.58 m/s, 292° | - | - |
| 1777968652 | 2.78° C | 91% | 853.9 hPa | 0 mm | 3.58 m/s, 292° | - | - |
| 1777968352 | 2.78° C | 91% | 853.2 hPa | 0 mm | 4.92 m/s, 292° | - | - |
| 1777968052 | 2.78° C | 91% | 851.6 hPa | 0 mm | 1.79 m/s, 292° | - | - |
| 1777967752 | 2.78° C | 91% | 852.2 hPa | 0 mm | 1.34 m/s, 315° | - | - |
| 1777967452 | 2.78° C | 91% | 851.2 hPa | 0 mm | 3.58 m/s, 292° | - | - |
| 1777967152 | 2.78° C | 91% | 850.9 hPa | 0 mm | 4.02 m/s, 292° | - | - |
| 1777966852 | 2.78° C | 91% | 850.8 hPa | 0 mm | 5.36 m/s, 292° | - | - |
| 1777966552 | 3.33° C | 91% | 851.1 hPa | 0 mm | 5.81 m/s, 292° | - | - |
| 1777966252 | 3.33° C | 91% | 850.7 hPa | 0 mm | 4.92 m/s, 292° | - | - |
| 1777965952 | 3.33° C | 90% | 850.6 hPa | 0 mm | 0.89 m/s, 292° | - | - |
| 1777965652 | 3.33° C | 90% | 850.8 hPa | 0 mm | 1.34 m/s, 315° | - | - |
| 1777965353 | 2.78° C | 89% | 851.2 hPa | 0 mm | 0.89 m/s, 292° | - | - |
| 1777965052 | 2.78° C | 89% | 851.8 hPa | 0 mm | 0.89 m/s, 292° | - | - |
| 1777964752 | 2.78° C | 89% | 854.5 hPa | 0 mm | 1.34 m/s, 292° | - | - |
| 1777964452 | 3.33° C | 88% | 854.6 hPa | 0 mm | 1.34 m/s, 292° | - | - |
* Rain latest hour (hover to see other rain measurements)
** Current wind speed in m/s (hover to see current wind gust speed)